Tracking 29033 objects as of 22-Jun-2024
HD Live streaming from Space Station
objects crossing your sky now

STARLINK-31266

Track STARLINK-31266 now!
10-day predictions
STARLINK-31266 is classified as:


NORAD ID: 59087
Int'l Code: 2024-041P
Perigee: 494.3 km
Apogee: 496.1 km
Inclination: 43.0 °
Period: 94.4 minutes
Semi major axis: 6866 km
RCS: Unknown
Launch date: February 29, 2024
Source: United States (US)
Launch site: AIR FORCE EASTERN TEST RANGE (AFETR)
Your satellite tracking list
Your tracking list is empty




NASA's NSSDC Master Catalog

Two Line Element Set (TLE):
1 59087U 24041P   24173.58264659  .00004232  00000-0  17151-3 0  9991
2 59087  43.0009 241.7225 0001327 272.9710  87.0989 15.25911887 18626
Source of the keplerian elements: AFSPC